Location: Bathurst
(33.4193°S, 149.5775°E)
Time: 09:36:49
(UTC+10:00)

Vanguard 1 Rocket - Pass Details

Date: 17 June 2021
Orbit: 650 x 4226 km, 34.3° (Epoch: 02 August)

Event Time Altitude Azimuth Distance (km) Brightness Sun altitude
Rises 04:59:34 0° 351° (N) 8,410 12.4 -25.2°
Reaches altitude 10° 05:09:34 10° 8° (N) 7,381 12.2 -23.2°
Maximum altitude 05:22:34 17° 40° (NE) 6,322 12.3 -20.6°
Drops below altitude 10° 05:33:21 10° 72° (ENE) 6,132 12.9 -18.4°
Sets 05:39:54 0° 90° (E) 6,507 13.2 -17.1°
